STARLINK-31683, 59573

Orbit data source: Space-Track

STARLINK-31683, 59573 is a payload satellite owned by SpaceX/Seattle (US) in LEO that was launched on Tue, 23 Apr 2024 UTC via an FALCON 9 launch vehicle from the Air Force Eastern Test Range (AFETR). Payload-class satellites include a variety of spacecraft equipped with specific instruments for various scientific and technological missions. These include communications satellites like Starlink; space stations such as the ISS; scientific satellites like the Hubble; Earth observation satellites from companies like Planet Labs, Umbra, and HawkEye 360; GPS; miniature CubeSats for education and research; and military/defense satellites.

Loading next visibility...
Identifier
59573, 2024-076K
Orbit
LEO
Country
Flag of USUS
Related business
Manufacturer
SpaceX/Seattle
Mission
Operational Commercial Communications
Bus & Motor
STARLINK V2M, Unknown motor
Mass
730 kg wet, ~700 kg dry
Launch date (UTC)
2024-04-23 (2 years ago)
Launch vehicle
FALCON 9
Launch site
Air Force Eastern Test Range (AFETR)
Object type
Payload
Rocket body
Debris
Shape & HBR
Box + 2 Pan, 17.7 m
Radar Cross Section
33.884 m², Large (>1 m²)

Expand to show TLE details & history
Last TLE update: 23 hours ago

TLE from 23 hours ago
0 STARLINK-31683
1 59573U 24076K   25306.44467745  .00000301  00000-0  20438-4 0  9990
2 59573  43.0015   7.4904 0000663 272.7689  87.3087 15.27574747 87045
Epoch: 2025-11-02T10:40Z
TLE epoch observation values (Epoch: 2025-11-02T10:40:20.131Z)
Latitude
-0.00001°
Longitude
165.4462°
Altitude
482.819 km
Speed
7.626 km/s
True Right ascension
00h 29m 57s
True Declination
0° 00' 00"
Sunlit
Object was in full shadow at epoch
Visualization orbit readout
Latitude
Unknown
Longitude
Unknown
Altitude
Unknown
Speed
Unknown
Apparent Right ascension
Unknown
Apparent Declination
Unknown
Sunlit
N/A
Visualization observer readout
Local Sidereal Time
05:24:00
Azimuth
Unknown
Elevation
Unknown
Doppler factor
Unknown
Orbital elements
Apogee altitude
485.465 km
Perigee altitude
484.555 km
Semi-major axis
6,863.147 km
Eccentricity
0.00007
Inclination
43.0015°
RAAN
7.4904°
Arg. of periapsis
272.7689°
True anomaly
87.31629°
Mean anomaly
87.3087°
Eccentric anomaly
87.31249°
Mean motion
3.81732 °/min
Orbital period
94.31 mins
BSTAR
0.000020438
Loading maneuver chart data...
Computing Atmospheric mass density...
Loading historical data...
Loading historical data...
Loading historical data...
Loading historical data...
Loading historical data...
Loading historical data...
Loading historical data...

Documentation

Showing up to 5 results
|